Troutdale, OR

3:39 PM PST on February 25, 2017 (GMT -0800)
Portland-Troutdale

Weather History for KTTD - September, 2013

Change the Weather History Date:

Monday, September 23, 2013

  Actual Average Record
Temperature  
Mean Temperature 59 °F 61 °F  
Max Temperature 64 °F 74 °F 91 °F (1987)
Min Temperature 54 °F 48 °F 38 °F (2008)
Degree Days  
Heating Degree Days 6 5  
Month to date heating degree days 25 69  
Cooling Degree Days 0 1  
Month to date cooling degree days 84 37  
Growing Degree Days 10 (Base 50)    
Moisture  
Dew Point 53 °F    
Average Humidity 80    
Maximum Humidity 93    
Minimum Humidity 67    
Precipitation  
Precipitation 0.44 in 0.08 in 0.94 in (1972)
Month to date precipitation 0.95 1.28  
Year to date precipitation 17.77 28.00  
Sea Level Pressure  
Sea Level Pressure 29.96 in    
Wind  
Wind Speed 4 mph (SSW)    
Max Wind Speed 16 mph    
Max Gust Speed 22 mph    
Visibility 9 miles    
Events Rain    
T = Trace of Precipitation, MM = Missing Value Source: NWS Daily Summary

Daily Weather History Graph

Daily Weather History Graph

Search for Another Location

Airport or City:

Trip Planner

Search our weather history database for the weather conditions in past years. The results will help you decide how hot, cold, wet, or windy it might be!

Date:

Astronomy

Sep. 23, 2013 Rise Set
Actual Time 6:58 AM PDT 7:04 PM PDT
Civil Twilight 6:28 AM PDT 7:34 PM PDT
Nautical Twilight 5:53 AM PDT 8:08 PM PDT
Astronomical Twilight 5:18 AM PDT 8:44 PM PDT
Moon 9:26 PM PDT (9/23) 11:36 AM PDT (9/23)
Length of Visible Light 13h 05m
Length of Day
12h 06m
Waning Gibbous, 80% of the Moon is Illuminated
Sep 23
Waning Gibbous
Sep 26
Last Quarter
Oct 4
New
Oct 11
First Quarter
Oct 18
Full

Hourly Weather History & Observations

Time (PDT) Temp. Dew Point Humidity Pressure Visibility Wind Dir Wind Speed Gust Speed Precip Events Conditions
12:53 AM 55.9 °F 53.1 °F 90% 29.86 in 10.0 mi Calm Calm - 0.00 in   Scattered Clouds
1:53 AM 55.9 °F 53.1 °F 90% 29.88 in 10.0 mi Calm Calm - N/A   Overcast
2:53 AM 55.0 °F 52.0 °F 89% 29.89 in 10.0 mi Calm Calm - N/A   Overcast
3:53 AM 55.9 °F 53.1 °F 90% 29.90 in 10.0 mi Calm Calm - N/A   Overcast
4:53 AM 55.9 °F 53.1 °F 90% 29.90 in 10.0 mi Calm Calm - 0.00 in Rain Light Rain
5:53 AM 57.0 °F 53.1 °F 87% 29.91 in 10.0 mi SW 3.5 mph - 0.00 in   Overcast
6:53 AM 55.9 °F 53.1 °F 90% 29.92 in 10.0 mi Calm Calm - N/A   Overcast
7:53 AM 57.9 °F 53.1 °F 84% 29.93 in 10.0 mi SW 8.1 mph - 0.01 in   Overcast
8:53 AM 59.0 °F 53.1 °F 81% 29.95 in 10.0 mi SW 10.4 mph 21.9 mph 0.00 in Rain Light Rain
9:53 AM 60.1 °F 53.1 °F 78% 29.95 in 10.0 mi Variable 6.9 mph - 0.00 in   Overcast
10:53 AM 61.0 °F 52.0 °F 72% 29.97 in 10.0 mi SSW 9.2 mph - N/A   Overcast
11:53 AM 62.1 °F 53.1 °F 72% 29.96 in 10.0 mi South 9.2 mph - N/A   Overcast
12:53 PM 63.0 °F 51.1 °F 65% 29.96 in 10.0 mi SSW 6.9 mph - N/A   Overcast
1:53 PM 62.1 °F 52.0 °F 70% 29.96 in 10.0 mi SW 8.1 mph - N/A   Overcast
2:53 PM 61.0 °F 54.0 °F 78% 29.97 in 10.0 mi SW 8.1 mph - 0.00 in   Overcast
3:53 PM 64.0 °F 54.0 °F 70% 29.97 in 10.0 mi South 6.9 mph - 0.00 in   Overcast
4:53 PM 62.1 °F 53.1 °F 72% 29.96 in 10.0 mi SW 10.4 mph - N/A   Overcast
5:50 PM 57.2 °F 53.6 °F 88% 29.97 in 7.0 mi Calm Calm - 0.04 in Rain Light Rain
5:53 PM 59.0 °F 54.0 °F 83% 29.97 in 7.0 mi Calm Calm - 0.04 in Rain Light Rain
6:09 PM 59.0 °F 55.4 °F 88% 29.97 in 10.0 mi Calm Calm - 0.00 in Rain Light Rain
6:39 PM 57.2 °F 55.4 °F 94% 29.97 in 1.8 mi NW 3.5 mph - 0.04 in Rain Rain
6:53 PM 57.0 °F 55.0 °F 93% 29.98 in 2.0 mi Calm Calm - 0.12 in Rain Rain
6:56 PM 57.2 °F 55.4 °F 94% 29.98 in 2.0 mi Calm Calm - 0.04 in Rain Rain
7:53 PM 57.0 °F 55.0 °F 93% 29.98 in 10.0 mi Calm Calm - 0.24 in   Overcast
8:20 PM 57.2 °F 55.4 °F 94% 29.98 in 5.0 mi Calm Calm - 0.00 in Rain Light Rain
8:35 PM 57.2 °F 55.4 °F 94% 29.99 in 3.0 mi Calm Calm - 0.02 in Rain Light Rain
8:53 PM 55.9 °F 52.0 °F 87% 29.99 in 7.0 mi Calm Calm - 0.03 in Rain Light Rain
9:53 PM 55.9 °F 53.1 °F 90% 30.00 in 10.0 mi Calm Calm - 0.00 in   Overcast
10:09 PM 55.4 °F 53.6 °F 94% 29.99 in 10.0 mi Calm Calm - N/A   Overcast
10:38 PM 55.4 °F 53.6 °F 94% 30.00 in 10.0 mi Calm Calm - N/A   Overcast
10:53 PM 55.0 °F 53.1 °F 93% 30.00 in 10.0 mi Calm Calm - N/A   Overcast
11:05 PM 55.4 °F 53.6 °F 94% 30.00 in 10.0 mi Calm Calm - N/A   Overcast
11:49 PM 55.4 °F 53.6 °F 94% 29.99 in 10.0 mi Calm Calm - N/A   Overcast
11:53 PM 55.0 °F 52.0 °F 89% 29.99 in 10.0 mi ESE 3.5 mph - N/A   Overcast